Probability
0 0 0 0 0 0 0 0 0 0 0 0 0 1 0 1 3 5 7 9 9 8 8 7 6 9 17 22 24 26 28 25 20 18 19 19 17 17 17 17 14 11 8 5
0 0 0 0 0 0 0 0 0 0 0 0 0 1 1 2 4 5 6 8 10 11 12 11 9 11 19 25 26 28 29 27 22 19 20 19 18 20 20 19 18 13 8 6
0 0 0 0 0 0 0 0 0 0 0 0 0 1 1 2 3 3 5 7 9 12 16 17 14 15 21 27 30 31 32 30 25 22 21 21 22 24 23 22 22 19 14 10
0 0 0 0 0 0 0 0 0 0 0 0 0 0 1 1 2 3 4 5 7 12 18 20 19 21 24 28 34 38 39 37 32 27 23 24 26 25 25 24 25 25 21 17
0 0 0 0 0 0 0 0 0 0 0 0 0 0 1 1 2 4 4 4 6 11 17 21 23 27 28 30 36 44 47 44 39 32 26 25 25 24 24 25 27 27 24 20
0 0 0 0 0 0 0 0 0 0 0 0 0 0 1 2 3 3 4 5 6 10 16 22 25 29 30 29 34 42 50 50 44 36 30 26 25 24 24 25 26 26 24 22
0 0 0 0 0 0 0 0 0 0 0 0 0 0 1 2 2 2 4 6 7 9 15 21 25 28 29 29 32 40 48 50 46 41 36 32 29 25 24 24 24 23 21 19
0 0 0 0 0 0 0 0 0 0 0 0 0 1 2 2 1 2 4 6 7 9 14 19 23 27 28 31 35 41 45 46 44 42 40 38 33 27 24 23 21 19 17 15
0 0 0 0 0 0 0 0 0 0 0 0 0 2 4 4 2 3 5 6 6 7 12 17 22 26 28 33 39 43 46 45 43 41 40 38 34 28 25 23 20 18 17 16
0 0 0 0 0 0 0 0 0 0 0 0 0 1 3 4 5 5 6 8 9 9 14 18 23 27 29 34 39 44 48 49 45 41 37 34 33 30 27 25 22 21 20 19
0 0 0 0 0 0 0 0 0 0 0 0 0 1 2 4 6 7 9 12 12 13 18 23 28 31 32 33 38 45 49 50 47 43 37 33 33 32 30 29 28 27 25 24
0 0 0 0 0 0 0 0 0 0 1 0 1 2 3 4 5 9 14 17 16 16 21 30 36 38 36 35 40 46 49 50 47 44 40 37 36 35 34 35 36 35 31 28
0 0 0 0 0 0 0 0 0 0 0 0 1 3 4 4 7 11 17 21 22 23 29 39 44 45 42 43 46 47 48 48 46 45 43 42 41 41 40 41 41 40 35 31
0 0 0 0 0 0 0 0 0 0 0 0 1 3 5 8 11 16 19 23 26 31 39 47 52 50 48 49 49 48 47 46 47 46 45 45 46 46 45 43 44 43 38 34
0 0 0 0 0 0 0 0 0 0 0 0 1 6 10 14 17 19 20 23 28 36 43 50 55 54 51 49 49 48 47 46 47 47 47 48 48 47 46 44 46 46 42 37
0 0 0 0 0 0 0 0 0 0 0 0 2 7 14 18 19 19 20 23 29 38 46 52 56 57 54 50 49 49 46 44 44 46 48 49 48 46 45 45 47 47 44 41
1 1 1 0 0 0 0 0 0 0 0 0 2 8 13 16 18 19 20 24 31 40 49 55 60 62 59 54 51 48 44 41 41 42 45 46 45 43 44 45 47 48 47 45
2 3 2 0 0 0 0 0 0 0 0 1 3 7 10 12 16 21 23 26 33 41 48 55 59 61 60 57 52 48 45 40 38 37 39 41 41 42 43 44 45 46 47 47
3 4 3 0 0 0 0 0 0 0 1 2 4 7 8 10 16 24 28 30 36 42 47 50 52 54 56 55 52 49 45 41 36 35 37 39 41 42 44 44 43 45 48 48
2 3 2 0 0 0 0 0 0 1 4 7 9 10 11 14 21 29 33 36 40 46 48 47 47 49 51 53 53 50 45 41 39 39 40 42 43 45 46 46 44 45 48 48
1 2 1 0 0 0 1 1 3 10 16 16 15 16 20 26 31 35 38 40 44 48 48 47 48 51 53 55 57 54 48 45 45 45 45 46 47 46 46 46 45 44 45 45
0 1 2 1 4 8 10 10 15 25 31 27 23 24 28 34 37 37 38 39 43 45 46 46 51 55 58 59 60 60 56 54 53 52 50 49 49 46 44 45 44 41 39 39
1 3 4 5 11 20 22 22 25 29 32 30 27 27 29 32 35 35 36 37 40 42 43 45 49 54 57 59 62 64 64 63 60 56 54 51 49 45 44 44 42 37 36 35
4 6 9 11 16 20 21 21 22 21 22 22 23 24 25 27 31 35 38 41 40 41 44 45 46 49 53 56 59 62 64 66 62 57 53 50 45 42 43 43 38 33 33 33
7 8 11 14 15 14 13 13 13 13 13 15 19 22 25 28 31 35 41 43 41 40 43 45 45 45 50 55 57 58 61 63 61 56 51 45 39 35 36 36 31 27 26 27
7 7 9 13 14 13 13 12 10 10 10 13 20 25 28 30 32 36 40 41 40 40 41 44 45 46 50 55 58 58 59 62 61 55 49 42 34 30 29 29 24 20 19 20
Wind_Speed
10 8 7 8 8 7 4 2 4 5 4 3 6 8 10 12 10 10 10 10 9 10 10 9 8 9 9 7 6 5 4 3 2 1 1 2 2 2 2 3 3 3 2 2
10 11 11 9 8 7 4 3 3 4 5 3 5 5 7 10 10 9 10 10 10 10 10 10 8 8 9 8 7 6 5 4 3 2 1 1 1 2 2 3 3 3 2 1
11 8 8 8 8 7 6 3 3 4 3 4 4 4 6 7 9 10 10 10 11 11 11 10 10 9 9 9 8 6 5 4 3 3 2 2 1 0 2 3 2 2 2 2
9 8 8 8 8 8 4 3 2 3 4 5 6 3 6 8 9 10 10 10 11 12 12 11 10 9 9 9 8 7 6 5 3 2 2 2 2 2 2 2 2 2 2 2
10 11 11 10 8 7 4 2 4 5 8 7 6 3 6 9 10 10 11 11 11 12 12 12 11 10 9 9 9 8 7 5 4 3 2 1 1 2 2 2 3 3 2 1
10 10 10 9 7 5 5 5 7 7 8 8 6 4 5 6 8 9 9 11 11 11 12 12 11 10 9 9 9 9 8 6 5 4 3 3 2 1 2 2 2 2 2 1
12 12 11 9 9 8 7 7 6 6 7 6 6 3 4 6 7 8 9 10 11 11 12 12 12 11 10 9 9 9 9 7 6 5 4 4 3 3 2 1 1 1 2 2
13 12 12 10 10 8 8 8 7 6 5 3 5 3 5 5 6 8 10 10 10 11 11 12 12 12 11 10 9 9 9 8 7 6 4 4 3 3 2 2 1 1 1 2
9 8 8 9 9 9 9 10 11 10 9 6 3 4 6 7 7 8 9 11 10 11 11 11 11 12 12 11 10 10 10 8 7 6 6 4 4 3 2 2 2 1 1 1
8 7 8 9 9 11 11 10 7 7 6 7 3 5 5 9 8 8 7 9 9 9 11 11 9 9 9 10 10 10 10 9 8 7 6 6 5 4 3 2 2 1 1 0
10 9 10 10 11 11 10 11 8 5 6 7 4 1 3 5 7 8 8 8 8 7 9 9 8 8 8 9 10 10 10 9 8 7 6 5 6 5 4 3 3 2 2 1
9 9 10 11 10 10 10 10 9 7 5 7 6 1 4 4 4 6 8 8 7 6 8 9 8 7 7 7 7 8 9 9 8 7 6 5 5 5 5 4 4 3 3 3
6 7 9 11 11 11 10 10 11 10 7 7 8 3 5 3 3 5 6 8 8 7 7 9 8 6 6 5 5 6 7 7 7 7 7 6 5 5 4 4 4 4 3 3
6 8 10 11 8 7 10 11 11 11 8 8 8 4 4 3 3 5 5 6 7 8 7 8 7 6 5 4 4 5 5 6 6 5 5 5 4 4 4 4 4 4 4 3
8 10 12 13 13 12 10 11 12 12 11 10 9 6 4 4 4 5 5 5 7 7 7 8 7 7 6 5 4 4 4 4 4 4 5 4 4 4 4 4 4 4 4 4
7 9 11 13 14 13 13 13 13 13 11 11 10 6 1 3 4 4 5 5 6 7 6 7 7 7 6 5 5 4 3 4 4 4 4 4 4 5 5 5 4 4 4 3
8 7 10 13 14 14 16 14 14 12 12 12 10 6 5 4 4 4 4 4 4 5 5 6 6 5 5 5 4 4 4 4 4 4 4 4 4 4 4 5 4 5 4 4
7 7 7 11 12 16 11 9 11 12 11 9 7 4 3 2 4 4 4 4 4 3 4 5 5 5 4 4 4 4 4 4 4 4 4 4 4 4 4 4 4 4 4 4
8 7 9 10 13 15 12 10 9 8 8 6 5 3 1 0 2 2 3 4 4 3 3 4 5 5 5 5 4 4 4 4 4 4 3 4 4 4 4 4 4 4 3 3
10 7 10 11 13 13 8 6 5 7 7 4 3 1 1 1 3 1 3 5 5 4 3 3 3 4 5 5 4 4 4 4 4 3 3 3 3 3 3 4 3 3 3 3
12 12 13 14 14 11 5 4 5 8 2 2 3 1 1 1 2 4 5 5 4 3 2 3 3 3 4 4 4 4 4 4 3 3 3 3 3 3 3 3 2 3 3 3
12 12 12 12 14 9 3 3 1 3 4 5 5 4 4 4 4 4 4 4 3 3 2 2 2 2 3 4 4 4 4 3 3 3 3 3 3 3 3 3 3 3 4 4
8 6 5 5 4 1 4 5 5 3 3 3 4 4 4 3 2 3 2 2 2 2 2 1 0 1 2 3 4 4 3 3 3 3 3 3 3 3 3 4 4 4 4 5
4 3 4 3 2 1 0 2 2 2 1 2 2 2 2 2 2 3 2 2 2 2 3 2 1 1 2 3 3 3 3 3 4 4 4 4 4 4 4 4 4 5 5 5
4 4 5 5 3 3 2 1 1 1 2 2 2 2 2 2 1 1 1 1 1 2 3 3 2 2 3 3 4 4 4 4 4 4 4 5 5 5 4 4 2 4 3 3
5 4 4 4 2 3 2 1 2 2 3 3 3 3 2 2 2 2 2 2 2 3 3 3 4 4 3 3 4 4 4 5 5 5 5 5 5 4 5 4 3 1 3 3
Wind_Direction
214 222 220 214 221 236 241 167 127 130 146 161 137 143 157 162 164 157 158 159 160 158 155 150 148 146 142 138 131 129 130 126 125 103 107 116 121 115 109 111 106 103 91 83
216 218 224 219 220 239 235 190 149 143 159 168 145 147 161 163 168 162 161 161 156 152 151 149 151 154 147 142 142 145 145 144 152 144 149 144 121 131 127 103 107 111 100 79
227 226 214 213 218 238 241 218 189 176 170 185 178 168 167 169 168 165 164 163 161 160 158 157 163 163 158 155 156 153 147 148 158 156 156 139 130 138 107 110 119 117 122 107
232 237 237 230 224 238 249 268 243 227 227 227 211 192 174 180 179 173 169 168 166 162 160 161 165 164 163 161 158 147 147 149 155 161 170 174 154 147 124 127 129 127 116 116
220 227 235 231 232 235 252 285 281 261 263 255 223 204 177 177 180 176 171 169 167 164 162 162 165 165 166 166 160 153 148 152 159 169 159 175 155 150 134 134 136 137 132 127
238 230 234 239 235 237 259 252 253 255 255 251 244 224 166 170 174 170 168 169 165 163 161 159 161 160 167 168 163 158 151 155 161 171 169 167 170 144 127 136 137 161 145 131
232 230 228 227 229 225 235 251 248 237 236 236 222 223 135 148 150 158 168 166 161 162 163 162 163 164 168 169 166 156 152 159 167 174 174 170 175 178 180 189 160 178 140 123
225 220 216 215 228 231 226 236 250 267 261 236 215 197 135 136 147 152 152 153 159 163 163 163 165 167 170 169 165 159 154 161 168 171 172 171 178 197 182 176 186 161 94 109
240 228 208 212 227 239 235 232 245 259 270 262 203 163 147 152 158 159 155 158 165 162 157 163 168 168 169 170 168 163 156 160 166 170 168 173 184 195 185 157 180 175 170 159
255 260 245 224 221 232 250 256 249 252 273 278 226 196 169 159 166 163 165 161 153 159 162 160 158 158 162 166 164 162 161 164 169 174 182 179 178 181 188 181 175 173 144 102
244 250 247 233 225 229 228 242 254 281 280 275 282 298 126 162 173 166 165 156 152 157 149 146 147 150 154 158 159 160 162 164 170 178 182 178 173 178 181 187 183 185 185 177
238 248 251 241 231 238 247 249 252 251 257 276 280 245 132 156 168 159 151 147 148 156 147 141 141 145 147 153 157 161 164 169 173 173 173 180 176 178 183 185 181 185 186 186
252 250 244 236 224 219 239 246 249 257 256 254 261 208 141 135 148 136 137 139 134 136 137 137 138 141 145 149 147 156 163 168 170 172 177 181 178 179 183 186 182 186 185 192
261 251 255 258 260 234 227 238 246 249 253 257 258 227 156 165 149 125 124 130 139 140 135 135 135 138 142 144 146 154 166 166 167 167 174 174 174 176 181 187 185 189 190 201
245 247 250 257 265 263 247 242 242 245 254 260 267 261 198 158 128 127 132 147 143 143 140 137 143 145 152 154 154 161 162 156 161 168 174 172 173 175 188 196 194 186 193 199
240 261 261 257 255 261 262 257 248 244 248 253 257 268 168 138 137 136 141 147 143 148 154 149 148 145 151 155 160 165 158 154 155 171 175 168 178 184 189 196 195 187 195 195
229 248 255 256 253 251 248 252 256 252 244 252 255 243 204 165 140 138 137 144 147 141 145 141 146 148 153 157 159 169 169 162 169 177 178 177 186 192 192 201 195 196 197 196
240 248 251 254 256 250 252 252 258 261 255 256 262 250 236 183 157 151 140 130 128 126 134 140 149 149 151 155 165 171 171 168 174 180 184 189 194 195 196 199 200 197 196 198
232 236 248 248 248 249 248 245 256 260 259 269 274 284 298 211 119 115 111 108 106 112 112 133 147 158 158 162 164 166 168 170 177 184 192 197 199 200 198 203 206 200 202 206
220 222 241 245 249 250 245 232 244 249 245 274 281 274 321 292 233 117 85 95 96 98 96 124 145 156 153 156 160 174 181 182 193 196 198 200 200 204 214 210 200 197 202 216
211 214 227 242 248 253 268 252 232 237 244 352 342 6 44 358 53 84 76 79 83 89 90 116 131 141 151 156 163 184 193 194 193 192 199 204 196 204 215 202 195 202 210 218
214 217 219 234 244 245 270 247 237 53 45 31 13 19 49 64 81 88 77 69 60 55 64 91 123 139 153 156 170 194 202 193 183 185 194 194 189 216 216 191 201 210 212 214
228 237 234 232 233 43 38 59 74 61 52 30 15 25 41 54 56 74 85 67 36 16 11 6 35 133 157 168 178 198 202 182 183 186 195 194 194 211 200 199 210 215 211 215
230 261 263 257 187 197 100 72 62 26 346 347 347 351 1 4 31 32 24 38 25 357 344 336 318 246 205 189 189 201 194 185 187 196 198 196 200 212 207 208 214 220 214 215
302 291 258 254 246 267 246 321 314 318 306 310 328 319 318 326 353 2 355 4 338 315 309 304 287 266 229 199 200 204 197 192 200 206 208 213 217 217 213 211 231 235 233 227
269 273 259 265 271 265 275 322 327 304 292 296 302 307 311 323 325 320 321 328 315 303 299 287 280 274 251 224 218 213 201 198 202 211 215 224 223 219 218 206 214 261 236 213